Theta_e
350 350 349 349 349 349 349 348 346 345 345 345 345 344 344 342 340 341 343 342 342 344 346 347 349 350 352 354 355 357 359 357 355 354 354 354 353 353 353 355 355 355 355 356 356 355 351 348 349 350 352 353 352 353 352 352 354 354 353 354 354 353 351 350 350 350 352 354 354 355 355 354 351 348 348 348 346 347 347 349 351 353 355 356 357
350 351 350 350 349 349 349 349 348 347 346 346 346 345 345 344 341 341 342 342 341 344 346 347 348 349 350 352 354 356 358 358 357 355 354 354 354 353 354 354 355 356 356 356 356 356 355 352 352 353 354 355 356 356 355 353 354 356 355 354 355 355 354 354 352 351 353 355 356 356 354 354 352 349 350 352 350 350 349 347 350 355 356 357 359
351 351 351 350 350 350 350 349 348 348 347 346 345 345 345 345 343 342 341 341 341 343 345 347 348 349 349 351 353 354 356 357 358 357 355 354 354 354 354 355 355 355 356 356 355 356 357 355 354 354 354 356 357 357 357 356 355 357 357 356 356 355 356 356 355 354 354 355 357 356 354 354 353 351 353 354 354 354 352 349 351 356 358 359 360
350 351 351 351 351 350 350 350 349 349 347 347 345 345 345 345 346 344 342 341 340 340 343 347 348 349 350 351 351 353 355 355 356 357 356 354 354 354 355 355 355 355 355 356 356 355 356 357 356 355 354 355 356 357 356 356 356 357 358 357 357 355 355 356 357 357 356 355 356 356 355 354 354 354 355 355 355 355 352 350 353 357 359 359 359
350 351 351 352 351 351 351 350 350 350 348 348 346 345 345 345 346 347 345 343 341 339 341 344 348 350 350 349 348 350 352 353 355 356 356 355 355 354 355 355 356 355 354 354 356 354 354 356 357 356 355 355 355 355 356 357 357 357 357 357 356 356 356 356 357 357 357 356 356 356 355 355 355 356 356 356 356 354 351 350 354 358 359 357 357
350 351 351 352 352 352 351 351 351 351 349 349 348 347 346 345 345 346 346 345 344 341 341 343 346 348 348 347 345 345 348 352 354 355 356 356 355 355 355 356 356 356 354 353 354 353 352 354 357 357 356 356 355 355 356 357 357 357 356 356 356 356 357 357 357 357 357 357 357 357 357 356 356 356 355 356 357 356 353 352 354 359 359 355 355
350 350 351 352 352 352 352 352 351 351 350 350 349 348 347 346 345 346 346 347 346 345 344 343 344 346 346 345 344 343 346 349 352 354 356 357 356 355 356 356 356 357 356 355 354 352 349 351 354 356 356 355 355 355 356 357 358 358 357 357 357 357 358 357 358 358 357 357 357 357 357 357 357 357 356 356 356 355 355 355 356 358 359 355 354
350 351 351 352 352 352 353 352 352 351 351 351 350 349 348 347 346 346 346 347 348 347 347 346 345 345 345 345 344 344 346 349 351 353 355 356 356 356 356 356 356 356 356 356 356 354 351 351 353 354 355 355 353 353 355 357 358 358 358 358 358 358 358 358 359 358 358 358 358 358 358 358 358 357 357 356 354 353 355 357 358 359 357 354 355
352 352 352 352 353 353 353 353 353 352 352 351 351 350 349 348 347 346 346 346 347 347 348 348 347 347 346 346 346 346 348 350 351 352 354 355 356 356 356 356 356 356 356 356 357 356 355 354 354 354 354 355 354 353 353 354 356 357 357 357 358 358 358 359 359 359 358 357 357 358 358 357 357 357 356 355 354 354 356 356 358 359 356 353 355
354 354 353 353 353 353 353 353 353 353 352 352 351 351 350 349 348 347 346 346 346 346 347 348 349 348 348 347 347 348 349 350 351 352 353 354 355 356 357 357 356 357 357 356 357 356 355 355 354 355 356 357 356 356 354 353 354 354 354 354 356 356 357 358 358 358 358 357 357 357 357 357 357 356 355 354 353 355 356 355 356 357 354 353 356
356 355 355 355 354 354 354 354 354 353 353 352 352 352 351 350 349 348 347 346 346 345 346 347 348 349 348 348 348 349 349 350 351 352 352 353 354 355 356 357 357 357 357 357 357 357 356 355 354 354 356 357 357 356 355 353 353 353 353 353 355 357 358 358 358 358 358 357 357 357 357 357 355 354 355 354 353 355 354 353 354 353 353 356 359
357 357 357 356 356 356 356 355 355 355 354 353 353 352 352 351 350 349 348 347 347 346 346 346 347 348 349 349 349 349 349 349 350 351 352 353 354 355 356 357 357 357 357 357 357 356 356 356 355 355 355 355 355 355 354 353 353 354 354 354 354 356 357 358 358 358 358 358 357 357 357 356 355 354 354 353 353 354 353 352 352 351 352 357 360
359 359 358 358 358 357 357 357 357 356 355 355 354 353 352 352 351 350 349 349 348 347 347 346 346 347 348 349 349 349 349 349 350 351 352 353 354 355 356 356 356 357 357 357 357 356 356 356 356 355 354 353 353 354 354 354 354 354 355 355 355 354 355 356 357 358 358 358 357 357 357 356 355 354 353 354 354 354 352 352 353 352 351 355 357
360 359 360 359 359 359 358 358 358 357 357 356 355 355 354 353 352 352 351 350 349 348 348 347 347 348 348 348 349 349 349 349 349 350 351 352 353 354 355 356 356 356 356 356 357 357 357 357 356 355 354 353 353 354 354 355 355 356 356 356 355 353 352 354 355 356 357 358 358 358 357 357 356 354 353 355 355 354 353 353 354 353 352 353 355
360 360 361 360 360 360 360 359 359 358 358 357 357 356 355 354 353 353 352 352 351 350 349 349 348 348 348 348 349 349 349 349 350 350 351 351 353 354 355 355 356 356 356 356 357 357 357 357 356 355 355 354 353 353 353 354 355 355 356 355 354 353 352 353 353 353 355 356 356 356 355 355 356 355 355 356 355 355 354 354 356 355 353 355 357
358 359 361 361 361 361 360 360 360 360 359 359 358 357 356 356 355 354 354 353 352 351 351 350 350 349 349 349 349 349 349 349 349 350 350 351 352 354 355 356 356 356 356 356 356 357 357 357 356 356 355 354 354 353 353 354 354 354 355 355 354 354 354 353 353 353 354 354 354 353 352 352 353 354 355 357 356 355 354 356 358 356 355 356 357
356 357 358 360 361 362 362 361 361 361 360 360 359 359 358 357 357 355 355 354 353 353 352 352 351 351 351 350 350 350 350 350 350 351 350 351 352 353 355 355 355 356 355 356 356 356 356 356 356 356 356 355 354 353 353 354 355 355 355 355 356 356 355 353 353 354 355 355 354 353 351 350 351 353 354 355 355 355 355 356 358 358 357 356 355
354 355 356 357 359 361 363 363 362 362 361 361 360 360 359 359 358 357 356 356 355 354 353 353 352 352 352 351 351 351 351 351 351 351 351 351 352 353 354 354 355 355 355 356 356 356 356 356 356 355 356 355 353 352 353 354 355 356 356 356 356 355 355 354 354 355 355 355 354 354 352 351 351 352 353 353 354 355 357 357 358 358 357 356 355
348 351 353 355 356 358 361 363 363 363 363 362 362 361 361 360 360 359 357 357 356 355 354 354 353 353 353 352 352 352 352 351 351 352 352 352 353 353 353 353 354 354 354 355 355 355 356 356 355 355 355 354 353 353 354 355 356 355 356 355 355 355 355 355 355 355 355 355 355 354 353 352 352 353 354 355 356 358 358 358 358 358 357 357 356
344 347 350 353 356 357 359 361 363 364 363 363 363 362 362 361 360 359 358 357 357 356 355 355 354 354 353 353 353 352 352 352 352 352 352 353 353 353 353 353 353 353 354 354 354 355 355 355 355 355 354 354 354 353 354 355 356 356 356 355 355 355 355 355 355 355 355 355 356 355 355 354 354 355 357 358 358 359 358 355 356 359 358 358 357
342 345 349 353 356 359 360 361 362 363 363 364 363 363 362 361 361 360 359 359 357 357 356 355 355 354 354 354 354 353 353 353 353 353 353 353 353 354 354 354 354 354 353 354 354 354 354 354 355 354 354 354 354 354 355 355 356 356 356 356 356 356 356 356 357 356 356 356 356 356 355 355 356 357 358 359 360 359 356 355 357 359 358 359 358
340 344 348 352 357 360 362 363 363 363 363 364 363 363 363 362 361 361 359 359 358 358 357 356 355 355 355 355 354 354 354 353 353 353 353 353 353 353 354 354 354 354 354 354 354 354 354 355 355 355 355 355 355 355 355 356 356 356 357 357 356 357 357 358 359 359 358 357 356 356 356 356 357 358 359 360 360 358 356 356 358 359 359 360 359
339 342 346 350 355 359 362 364 364 363 364 364 364 363 363 362 362 361 360 359 359 358 358 357 356 356 355 355 355 355 354 354 354 354 353 353 353 354 354 354 354 355 354 354 355 355 355 355 355 355 355 355 356 356 356 357 357 357 357 357 357 358 359 359 360 360 359 357 355 356 357 357 358 359 359 360 359 358 358 358 359 360 359 357 356
337 340 342 345 348 353 357 362 364 364 364 364 364 364 364 363 362 361 360 360 359 358 358 357 357 356 356 356 356 356 356 355 355 354 354 354 353 353 354 354 355 355 355 355 355 355 355 356 355 355 356 356 356 356 357 357 358 358 357 357 358 358 358 357 357 358 358 357 356 356 358 358 359 359 359 359 359 359 359 359 360 359 356 354 355
334 336 338 341 343 347 351 357 362 364 364 364 365 365 364 363 362 362 361 360 359 359 358 358 357 356 356 356 356 356 356 356 356 356 355 355 355 355 354 355 355 356 356 356 356 356 356 356 356 356 357 357 357 358 358 358 358 358 358 357 357 356 356 355 355 355 357 357 357 358 358 359 358 359 360 360 360 360 360 360 359 356 353 353 351
332 334 336 338 341 344 348 354 359 363 364 364 365 365 364 364 363 362 361 361 360 359 359 358 358 357 356 356 356 356 356 357 356 356 356 356 356 355 355 355 355 356 356 356 356 357 357 357 357 357 358 358 358 359 359 359 359 359 358 357 357 357 356 356 356 355 356 356 357 358 358 358 359 359 360 361 361 360 360 359 356 352 351 349 343
331 333 334 336 339 343 349 355 360 362 364 364 364 365 365 364 364 363 362 361 360 360 359 358 358 357 357 356 356 356 356 357 356 357 357 356 356 356 356 356 355 356 357 357 357 357 357 357 358 358 358 359 359 359 360 359 359 359 359 358 359 358 358 358 357 356 356 355 356 357 357 358 358 359 360 361 360 360 358 355 352 349 347 343 337
331 333 334 335 339 344 351 357 360 362 363 364 364 365 365 364 364 363 362 362 361 360 360 359 359 358 357 357 357 356 356 357 357 357 357 356 357 356 356 356 356 356 356 356 357 357 357 356 357 357 358 358 358 359 359 359 359 359 359 359 359 359 359 358 357 357 357 356 355 356 356 357 358 359 360 360 359 359 357 352 349 347 343 339 336
331 333 334 336 340 345 352 356 358 359 362 363 364 365 365 365 365 364 363 363 362 362 361 360 360 359 358 358 357 357 357 357 357 357 357 357 357 357 356 356 356 356 356 356 356 356 354 353 354 355 356 357 357 358 358 358 358 359 359 359 359 359 359 359 358 359 359 358 357 356 356 357 357 358 359 359 358 358 356 351 347 344 341 337 336
332 334 335 337 340 345 350 352 354 356 360 362 363 365 365 365 365 365 364 364 363 363 363 362 361 361 360 359 359 358 358 358 358 358 357 357 357 357 357 357 357 357 356 356 354 353 351 351 352 354 355 355 356 356 357 357 358 358 358 359 359 359 359 359 360 360 360 360 359 357 357 356 357 358 359 359 359 358 356 352 347 342 339 337 335
331 333 334 336 339 342 345 348 351 355 358 360 362 364 365 365 365 365 365 364 364 363 363 363 362 362 361 360 359 359 359 359 359 358 358 358 358 358 357 358 357 357 357 355 352 349 348 350 352 353 353 354 355 355 356 356 357 357 357 357 358 359 359 360 360 360 361 361 360 358 357 356 357 357 358 359 359 357 354 350 344 340 339 337 335
330 331 331 333 337 341 344 348 350 352 356 359 362 363 364 364 365 365 365 365 364 363 363 363 363 362 362 361 360 359 359 359 358 358 358 358 358 358 358 358 358 358 357 354 350 347 347 349 351 352 353 353 354 355 355 355 355 355 356 356 357 358 359 360 360 360 360 360 359 358 357 356 356 357 358 358 357 355 351 347 341 339 338 337 335
328 328 329 331 335 338 343 347 350 352 354 357 360 363 364 364 365 365 365 364 364 363 363 363 363 363 362 361 361 360 360 359 359 358 358 358 358 359 359 359 359 359 357 353 349 348 348 349 350 352 353 354 354 354 355 355 355 355 356 356 356 357 358 359 358 358 358 357 357 357 357 356 356 356 356 356 354 352 350 345 340 338 337 335 334
326 327 328 331 332 334 336 341 346 350 353 354 357 361 363 365 365 364 364 364 363 363 363 363 363 363 362 362 361 361 360 360 359 359 358 358 358 358 359 360 359 358 355 352 349 349 349 350 350 351 352 354 354 354 355 355 355 355 356 356 355 355 356 356 356 355 355 354 354 355 355 355 355 355 355 354 353 350 348 344 340 337 336 334 333
324 325 326 328 328 329 330 332 337 342 347 351 354 357 360 364 365 365 365 364 362 362 363 363 363 363 363 363 362 362 361 361 360 359 359 358 358 358 358 357 355 352 350 349 349 350 350 351 351 351 352 353 354 354 355 355 356 355 355 356 355 354 353 353 352 353 353 353 352 353 354 354 354 354 354 353 351 349 346 343 340 338 336 333 333
322 323 324 324 324 325 326 328 331 335 340 345 349 352 356 359 362 363 363 363 363 362 362 363 363 363 363 363 362 362 362 361 360 360 359 359 358 357 355 354 352 350 348 347 348 349 350 351 351 351 352 353 353 354 355 356 356 355 355 355 354 352 351 351 351 352 353 352 352 353 354 354 354 354 353 351 350 349 347 343 340 338 335 333 334
320 321 321 322 322 323 324 326 329 332 336 340 345 349 352 354 357 359 360 361 362 362 361 361 361 361 361 362 363 362 362 361 359 358 356 356 355 354 354 354 353 350 349 348 349 349 349 349 349 350 351 352 353 354 355 355 356 356 354 354 353 351 351 351 352 352 352 352 352 353 353 353 354 353 351 350 350 348 345 342 339 337 335 334 334
319 319 319 320 321 322 323 325 327 331 335 339 344 348 350 352 354 356 356 357 358 358 358 359 358 357 358 361 362 363 361 358 356 355 354 353 352 351 351 352 352 351 351 350 350 350 348 347 347 349 351 352 353 353 354 355 355 354 353 353 352 351 350 351 351 351 351 351 352 353 353 353 353 352 350 350 349 347 344 341 339 337 336 335 335
317 317 318 319 320 320 321 324 327 330 334 339 344 347 349 350 351 351 351 352 353 353 353 353 352 353 355 358 359 359 355 352 352 353 353 353 353 352 351 351 351 351 352 351 350 350 348 346 346 347 350 352 352 353 353 354 354 353 352 352 351 350 349 349 350 350 351 351 352 353 353 353 353 351 349 348 349 347 344 341 339 338 337 336 335
315 316 317 318 318 319 321 323 325 327 330 335 341 346 348 349 349 349 348 349 349 349 349 349 350 351 353 354 354 354 352 351 353 354 352 351 351 352 351 350 350 351 352 351 351 351 349 346 345 347 349 350 351 352 352 352 353 352 351 350 349 348 348 349 350 350 351 352 352 352 352 353 352 349 345 345 347 347 344 340 338 338 337 335 335
314 315 316 317 317 318 319 321 323 323 325 329 334 340 345 348 348 347 347 347 347 348 348 348 349 350 351 351 352 353 354 354 354 354 353 351 350 351 351 352 353 353 352 352 352 351 350 348 346 347 348 349 351 352 352 351 352 352 349 347 348 349 349 349 350 351 351 351 351 351 351 352 351 348 345 343 343 343 341 338 337 337 336 334 334
313 313 315 315 315 316 317 318 319 320 321 324 327 332 338 344 346 346 346 346 346 347 347 348 349 350 352 352 353 354 354 353 352 354 354 351 349 348 351 352 353 352 351 351 351 351 350 349 348 348 348 348 350 352 351 349 351 350 349 347 348 349 349 349 351 352 351 351 351 350 350 350 350 349 346 342 339 338 338 337 335 334 333 333 333
311 312 313 314 314 314 315 315 316 317 318 320 323 325 331 337 343 345 346 345 345 346 347 348 350 351 352 354 355 354 352 351 352 353 353 350 347 347 348 349 349 348 348 349 350 350 351 350 349 349 349 348 349 350 349 349 351 350 348 347 348 347 348 349 351 351 351 349 349 349 348 348 347 346 344 341 339 337 336 334 333 332 333 334 334
310 310 311 312 312 312 312 312 313 315 316 317 319 321 325 331 339 343 345 345 345 346 347 348 349 350 351 352 352 352 350 350 351 351 350 348 347 346 346 346 346 346 347 348 349 349 349 349 348 348 348 346 346 346 347 349 350 350 348 348 347 346 347 349 351 352 350 348 346 346 346 345 343 342 341 340 338 335 333 332 332 332 332 332 332
308 309 310 310 310 310 310 311 311 312 313 313 315 316 320 326 333 341 346 346 345 346 347 348 348 348 348 348 349 349 348 347 348 347 346 345 344 343 343 343 343 344 344 345 345 345 345 345 344 344 343 342 342 344 346 348 349 348 348 348 348 347 347 348 349 349 347 345 344 343 342 341 339 338 338 337 335 333 332 332 331 331 330 330 329
307 308 308 308 308 309 309 309 310 310 310 311 312 313 315 318 324 333 342 347 347 347 347 346 346 346 345 344 344 344 343 342 341 340 338 338 337 337 337 337 338 339 340 339 339 340 340 340 340 339 338 337 338 339 340 342 343 344 344 345 346 346 345 343 343 344 343 343 342 341 339 337 336 336 335 334 333 333 333 332 330 330 330 329 329
306 306 307 307 307 307 307 308 308 309 309 309 310 310 311 313 315 320 327 335 341 344 344 342 341 339 338 337 336 336 335 334 332 331 329 329 329 329 330 331 332 333 333 332 332 333 334 334 334 334 334 334 334 335 336 337 338 339 340 341 342 342 341 340 340 340 340 340 339 338 337 335 335 334 334 333 333 333 332 331 331 330 329 329 328
305 305 306 306 305 305 306 306 306 307 308 308 309 308 308 309 310 312 314 318 323 327 329 330 329 329 327 326 326 325 324 323 321 320 320 320 320 320 321 322 323 324 324 324 324 325 326 327 327 328 328 328 329 330 330 330 331 332 333 334 335 337 338 338 337 336 336 336 336 337 336 336 334 333 333 332 332 332 331 330 329 328 326 326 324
304 304 304 305 304 304 304 304 304 305 306 307 308 308 307 307 307 308 309 310 312 314 315 317 318 319 319 318 317 316 315 313 312 311 311 311 311 313 314 315 316 316 316 317 317 317 319 321 322 323 324 324 325 325 325 325 326 327 327 327 329 332 334 335 335 334 334 334 333 333 333 333 332 332 331 330 328 327 326 325 324 323 322 321 319
303 303 303 303 303 303 303 303 303 304 304 305 305 306 306 306 306 306 306 307 308 308 309 310 310 311 311 311 310 310 309 308 307 306 305 305 304 305 306 308 309 310 311 311 311 312 313 315 317 318 320 320 321 322 322 322 322 322 323 323 324 325 327 329 330 330 331 331 330 330 329 329 329 328 327 325 324 323 322 320 319 318 317 316 316
302 302 302 302 302 302 302 302 302 302 303 303 304 304 305 305 305 305 305 305 305 305 305 305 305 306 306 306 305 305 305 304 304 303 303 303 303 302 302 302 304 306 306 307 308 309 310 311 313 315 316 317 318 318 319 319 320 320 321 321 322 322 322 322 323 323 324 324 324 324 324 324 323 322 320 320 319 318 317 316 315 315 314 314 314
Wind_Speed
41 41 41 41 40 39 39 39 38 37 36 36 36 36 35 35 35 34 31 29 29 29 30 30 29 28 27 26 26 25 24 24 23 23 23 23 22 21 19 18 17 17 16 15 14 14 16 18 19 17 15 14 13 13 13 12 10 9 9 9 9 8 9 8 8 11 14 14 14 14 15 16 17 16 16 17 15 14 14 14 15 16 16 16 16
41 41 40 40 40 40 39 39 38 37 36 36 36 36 36 36 36 35 34 33 30 29 30 31 31 30 29 28 27 26 26 26 25 25 25 25 24 23 22 21 20 19 19 18 17 16 16 18 19 18 16 15 14 14 14 13 12 11 11 11 11 11 11 11 11 11 15 18 17 17 17 17 18 18 17 18 18 17 16 15 15 16 15 15 14
42 41 39 39 40 40 38 38 38 37 37 36 36 37 37 37 36 35 35 35 33 31 31 31 32 31 30 29 28 27 27 27 27 27 28 27 26 26 24 23 23 22 22 21 19 18 18 19 19 19 18 18 17 14 14 14 14 14 14 13 13 13 13 14 13 13 16 19 20 20 19 19 20 19 18 19 19 17 17 16 16 16 14 12 12
40 39 39 39 39 38 38 37 37 37 38 38 38 38 38 37 36 36 35 34 34 33 32 32 32 32 32 31 30 29 29 28 29 29 29 30 29 28 27 26 26 25 25 24 22 21 21 21 20 19 19 20 20 17 15 16 17 17 17 17 16 16 15 15 15 15 16 18 20 21 20 20 21 20 20 20 19 17 17 17 17 15 11 11 12
38 38 38 38 37 37 37 37 37 37 38 38 38 39 38 37 37 37 36 35 34 34 34 34 34 34 34 33 32 31 31 30 31 31 31 31 31 31 30 29 28 27 27 27 26 25 24 23 22 20 20 22 23 21 19 19 19 20 20 20 19 18 17 16 16 16 17 19 20 21 20 20 21 21 20 20 19 19 18 18 16 12 10 12 14
37 37 37 36 36 37 37 36 37 37 38 39 38 38 38 37 37 37 37 36 35 35 35 35 35 36 36 35 34 33 33 32 32 32 32 32 31 31 31 31 30 29 28 29 29 28 28 27 25 23 22 23 24 25 23 22 22 22 22 22 21 20 19 18 18 18 18 19 21 21 22 21 21 21 21 19 18 19 19 19 16 11 11 16 16
36 36 36 36 35 36 36 37 37 37 38 39 38 38 38 37 37 37 36 36 36 35 35 36 36 37 37 36 36 35 34 33 33 33 33 32 32 32 31 31 31 30 29 29 29 29 29 29 28 27 26 25 26 26 25 24 24 24 24 23 22 21 20 20 20 19 19 19 20 21 22 21 21 21 22 20 19 19 17 17 16 13 12 16 17
35 35 35 35 35 36 37 37 37 37 38 38 38 38 37 37 37 37 36 35 36 36 36 36 36 37 37 37 37 36 35 34 34 33 33 33 32 32 32 31 31 30 30 30 30 29 30 30 30 29 29 28 27 28 28 27 26 25 25 24 23 22 21 21 21 21 21 20 20 21 21 21 22 23 22 21 19 18 16 16 16 14 13 15 15
34 34 34 35 36 36 37 37 37 37 36 36 37 38 38 37 37 37 36 36 36 36 36 36 36 35 36 37 37 36 35 35 35 35 34 33 33 33 32 32 31 31 31 31 31 30 30 30 30 30 30 29 29 28 28 29 28 28 28 27 24 22 22 22 21 21 21 20 21 22 20 21 24 23 22 19 17 17 18 16 15 15 14 15 14
34 35 35 35 36 37 37 37 36 37 37 36 37 37 37 37 36 36 36 36 36 36 35 35 35 35 35 36 36 36 36 36 36 36 36 35 34 33 33 33 32 32 32 31 31 31 31 32 32 32 31 30 30 29 28 28 28 29 29 28 26 24 23 23 22 22 21 20 21 21 19 21 25 23 20 20 19 18 17 15 14 15 15 15 13
34 34 34 35 36 36 36 36 36 37 37 37 37 37 37 36 36 36 36 36 37 36 35 35 35 35 35 35 36 36 37 37 37 37 36 36 35 34 33 33 32 32 32 32 32 33 33 33 33 33 32 31 31 31 30 29 28 28 27 27 26 25 24 24 24 24 22 21 22 21 19 22 26 23 20 21 20 18 16 15 14 15 14 11 11
33 33 34 35 35 35 35 35 35 36 37 37 37 37 37 36 36 35 35 36 36 36 36 36 36 36 35 35 35 37 38 39 38 38 37 37 36 35 34 33 32 32 32 32 33 33 33 33 33 33 32 32 33 32 32 31 30 29 28 26 25 25 26 26 27 26 24 22 23 23 23 24 26 25 22 21 19 16 15 15 14 15 13 11 11
33 34 35 36 36 36 36 36 35 36 37 37 37 37 37 36 36 36 36 35 35 35 36 37 37 36 36 35 36 37 38 39 39 39 39 38 38 37 35 34 33 33 33 33 34 34 34 33 33 33 33 33 32 32 32 32 31 30 29 28 27 26 26 27 28 29 29 27 26 27 28 27 27 27 25 21 19 17 16 17 17 16 15 14 13
33 34 36 36 36 36 36 36 36 36 37 37 37 37 36 36 36 36 35 35 35 35 36 37 37 37 37 36 36 37 38 39 39 39 39 39 39 38 37 36 34 34 34 34 34 34 34 33 33 33 34 33 32 31 31 32 32 31 30 29 29 28 27 27 28 29 30 30 30 32 34 32 32 32 29 24 22 21 20 19 18 17 16 15 14
23 26 30 34 34 35 35 35 35 36 36 36 36 36 36 36 36 36 35 35 35 36 36 36 37 37 37 36 36 37 38 39 39 39 40 40 39 38 38 37 36 35 35 35 35 35 35 35 34 35 35 34 34 32 32 31 31 30 30 30 31 30 29 29 28 28 29 30 30 32 33 34 35 35 32 28 25 24 23 21 18 17 16 15 13
13 16 21 25 29 32 34 34 35 35 35 35 35 35 35 36 36 36 35 35 35 35 35 35 36 36 36 36 36 37 38 39 38 39 40 39 39 38 38 38 37 36 36 36 36 36 37 36 35 35 36 36 36 34 33 31 30 29 30 31 31 31 31 30 29 29 29 29 27 27 27 28 30 32 32 30 27 25 24 22 20 17 15 14 13
4 8 13 17 22 26 29 31 32 34 34 34 35 35 36 36 37 36 35 35 35 35 35 35 35 35 35 36 36 37 38 39 39 39 39 39 38 38 38 38 38 38 38 37 37 37 38 38 37 37 37 38 38 37 35 32 30 30 30 31 30 31 33 33 31 30 30 29 28 27 26 25 25 26 28 28 27 24 22 22 22 19 16 14 13
6 3 5 10 16 21 26 29 31 33 34 35 35 35 36 36 37 37 36 36 36 36 36 35 35 35 36 37 37 38 39 39 39 39 39 39 38 39 39 39 38 38 38 38 38 38 39 39 38 38 38 39 40 39 37 33 31 31 31 30 29 31 34 34 32 31 31 30 29 28 26 24 23 23 23 22 22 22 23 24 24 20 17 16 14
12 10 7 5 9 15 21 28 32 34 35 36 36 36 36 37 37 37 37 36 36 36 35 35 35 36 36 37 37 38 39 40 39 39 40 39 39 39 39 38 38 38 38 38 38 39 39 39 39 38 39 40 41 40 38 34 32 32 32 29 28 31 34 33 30 30 29 28 27 27 25 24 22 21 20 19 19 21 23 24 25 22 20 19 17
15 14 12 9 7 10 16 23 31 35 35 36 36 36 36 36 36 35 35 35 35 35 35 35 35 35 36 36 37 38 40 40 40 40 41 40 40 40 39 38 38 38 38 37 37 37 38 39 39 39 40 41 42 41 39 36 34 33 32 30 30 33 34 31 29 28 27 27 27 26 26 24 23 21 20 19 20 21 23 24 25 25 23 21 19
17 15 14 13 11 12 14 18 26 33 36 36 36 36 36 35 35 35 35 35 34 34 34 34 35 35 36 36 37 38 40 41 41 42 42 41 41 40 40 41 41 40 38 37 37 37 38 38 39 40 41 41 42 42 39 37 35 34 33 32 33 33 32 31 30 29 27 27 28 27 26 25 24 22 22 21 22 22 22 23 24 22 21 20 20
17 16 14 14 14 14 15 16 18 25 33 34 34 35 36 35 34 34 34 34 34 34 34 33 33 34 35 36 37 38 40 41 42 43 43 43 42 42 42 43 43 41 38 37 37 38 38 39 39 40 40 40 40 40 39 37 35 35 35 35 34 33 32 31 31 30 29 28 28 27 27 25 24 24 23 23 23 22 21 22 21 19 17 18 19
17 15 13 13 14 15 17 17 15 18 26 32 33 34 34 34 34 34 33 33 33 33 33 33 32 32 33 34 36 38 39 40 42 43 43 44 44 43 43 44 44 43 40 39 39 40 40 40 40 40 39 38 38 37 36 35 34 34 35 35 33 31 29 28 27 27 28 28 27 28 27 26 25 25 25 25 23 21 20 20 19 17 15 17 19
15 13 12 12 13 15 16 17 16 16 21 27 31 32 33 33 33 33 34 33 32 32 32 32 31 30 31 32 34 36 37 38 39 41 43 44 45 45 45 44 44 44 43 42 41 41 40 40 41 40 39 38 37 35 34 33 33 32 32 32 31 29 27 26 26 26 27 28 28 29 29 27 26 26 26 25 23 21 20 20 18 17 16 17 16
16 15 14 14 14 15 15 16 16 16 19 24 29 31 32 32 32 32 33 33 32 31 31 31 31 30 30 31 32 33 35 36 37 39 41 43 45 46 46 46 45 45 46 45 44 43 42 42 42 40 38 36 34 33 33 33 33 32 32 31 30 29 28 27 27 27 28 29 30 30 31 30 29 27 26 25 23 21 20 20 19 17 15 14 12
19 17 17 17 17 17 17 16 15 15 18 23 29 31 32 32 32 32 32 33 33 32 31 30 31 30 31 31 31 31 32 35 37 38 39 42 44 45 46 46 46 46 46 46 46 45 44 43 41 39 37 34 32 31 32 32 32 32 31 29 28 28 27 26 27 28 29 30 31 32 33 31 29 27 25 23 23 22 20 19 18 16 15 15 14
18 17 18 19 19 18 17 17 16 15 16 21 28 31 32 33 33 32 32 33 32 32 30 30 30 30 30 29 29 30 32 34 36 38 39 41 43 45 45 46 46 45 46 47 48 46 44 42 40 38 34 31 29 30 30 30 30 30 29 28 27 27 26 25 26 28 29 30 30 31 32 31 28 25 24 24 23 22 20 19 17 16 17 17 17
16 17 18 18 18 18 18 18 18 17 16 19 25 30 32 33 34 35 37 37 34 31 31 31 31 32 31 29 29 30 32 35 38 38 38 39 41 43 44 45 46 46 47 47 47 46 43 39 35 33 31 29 28 28 29 28 29 28 28 28 27 26 25 24 26 27 28 28 29 29 29 28 27 25 25 25 24 22 20 19 19 19 20 20 19
15 15 16 16 16 17 18 19 20 19 17 19 24 29 32 35 36 37 40 41 40 38 37 36 37 37 35 33 32 31 32 37 41 41 39 40 42 43 45 46 47 47 48 47 46 44 40 34 30 29 28 28 28 28 28 28 27 28 28 29 28 26 25 26 27 28 28 27 28 29 29 28 27 26 26 25 25 23 21 20 21 22 23 22 21
15 14 13 14 15 16 18 21 23 22 18 18 22 27 31 36 39 40 40 42 45 46 44 43 43 43 40 38 39 39 40 43 45 43 42 43 44 45 46 47 47 47 47 45 42 37 33 30 30 29 27 27 27 28 28 28 28 29 30 30 29 28 27 28 29 29 28 28 29 30 29 28 28 27 27 27 26 25 22 22 24 25 26 25 23
15 14 14 14 16 18 20 22 24 23 20 18 20 23 26 31 37 42 43 43 44 47 49 49 49 47 44 42 43 45 47 47 44 43 42 43 43 44 44 45 45 45 45 42 38 34 29 27 28 27 26 26 27 28 28 28 29 30 30 29 28 28 28 29 29 29 30 31 31 30 30 29 29 28 29 29 28 25 23 23 26 28 28 27 25
16 17 18 18 18 19 20 21 22 23 22 20 19 21 23 23 28 36 42 43 42 43 48 51 52 50 48 46 43 43 45 45 43 42 40 39 41 43 43 43 42 42 41 39 35 32 29 28 27 25 24 26 28 28 28 28 29 29 28 28 29 30 31 31 30 30 31 32 31 31 30 30 29 30 30 30 28 25 24 25 28 30 29 27 26
19 20 21 20 20 20 20 20 21 23 23 21 19 20 21 21 21 26 34 39 40 40 43 48 51 51 50 48 46 43 42 42 43 43 41 39 39 39 40 41 40 39 39 38 34 30 29 29 28 25 25 28 29 28 26 27 28 29 31 32 33 32 32 31 29 29 29 30 30 30 30 29 30 30 30 29 26 25 25 27 29 29 28 27 26
20 21 21 20 21 21 20 19 20 21 23 23 22 20 21 23 24 23 24 26 30 33 37 41 46 49 49 48 47 46 44 43 42 43 43 43 41 38 37 37 37 37 38 38 35 32 29 28 27 26 27 28 27 25 25 29 32 33 34 35 34 31 29 29 28 28 29 29 30 30 29 28 29 29 28 27 25 24 25 27 29 29 28 27 27
21 21 20 19 20 21 22 21 20 20 22 23 23 22 22 23 24 24 23 22 24 28 33 37 41 46 49 49 48 48 48 47 45 43 43 43 42 39 35 33 34 34 35 35 34 32 30 29 27 27 28 27 25 26 30 35 36 35 35 36 34 31 29 29 29 30 30 29 30 30 28 27 28 29 28 26 25 25 26 27 29 30 29 28 27
21 21 20 20 20 22 23 23 22 20 21 22 24 24 22 20 18 18 19 20 21 24 27 30 31 35 41 47 48 48 48 47 46 44 42 42 42 40 35 33 33 33 33 34 35 34 32 31 28 25 26 27 28 31 36 39 38 37 37 36 34 31 30 30 29 29 29 28 29 29 28 27 28 28 27 25 25 26 28 28 29 30 30 29 28
21 20 21 21 22 22 22 22 22 22 22 23 24 23 21 19 17 17 17 18 20 22 23 23 22 24 31 39 44 47 47 46 44 42 40 39 39 39 38 37 36 33 32 34 35 34 33 31 26 24 26 30 33 36 39 40 40 38 36 35 33 32 31 31 30 29 29 28 28 29 28 27 27 27 26 25 26 27 27 27 28 29 29 29 28
20 19 20 20 21 22 23 22 22 22 22 22 22 21 21 22 23 23 22 23 24 26 27 28 27 26 29 35 40 43 43 40 36 36 37 37 37 37 38 37 35 33 33 33 33 34 33 29 26 27 30 33 37 39 40 40 40 38 35 33 33 32 31 30 29 29 29 29 29 29 28 28 28 28 27 27 28 27 26 26 27 28 29 29 28
22 20 20 20 20 21 22 22 21 20 20 20 21 22 24 24 24 23 23 23 23 24 26 26 27 29 33 37 39 38 35 31 31 34 37 38 38 38 39 37 35 34 34 33 31 32 30 27 26 30 33 35 38 40 40 40 39 36 33 32 32 32 30 30 29 30 31 31 31 31 30 30 29 29 28 28 29 29 28 29 30 31 31 30 29
24 22 21 21 21 21 20 20 20 19 18 18 20 22 25 26 25 25 25 25 25 27 28 27 28 32 37 37 37 36 33 31 33 34 31 31 34 37 39 39 37 36 35 33 31 30 28 26 27 31 34 35 38 40 40 39 36 32 30 30 31 31 30 29 29 31 32 33 33 32 31 30 30 29 28 29 30 31 32 32 33 33 33 32 30
23 22 21 20 20 20 18 18 20 20 18 17 18 21 25 27 27 26 25 25 26 29 30 29 30 34 36 35 35 36 36 34 33 31 29 31 35 37 39 41 41 40 38 36 33 30 27 25 27 31 35 35 36 39 40 37 32 29 29 29 29 29 28 27 28 31 32 33 33 32 31 31 30 30 30 31 32 33 32 32 31 31 31 29 28
22 21 20 19 19 18 16 17 19 20 19 17 17 19 22 26 27 26 25 26 27 27 28 29 30 30 31 32 34 36 35 33 31 30 32 36 38 37 37 40 41 39 37 34 31 28 24 23 25 30 36 37 36 37 37 34 29 29 32 32 31 30 29 28 28 31 33 34 33 32 31 31 31 31 32 32 32 31 29 27 27 28 28 26 24
19 19 17 17 17 16 16 17 19 19 19 18 16 17 20 23 26 27 26 27 28 26 26 27 28 28 28 29 31 31 31 30 29 29 31 34 34 33 32 33 32 31 29 28 26 24 22 22 24 29 35 39 39 37 36 33 30 32 37 37 35 33 31 29 29 32 34 34 33 32 31 31 31 31 30 30 30 28 25 24 25 26 25 23 22
17 17 16 17 16 16 16 17 18 18 18 17 16 16 16 19 24 27 27 26 27 28 27 26 26 26 27 27 27 27 27 28 27 27 27 28 28 27 26 25 24 24 23 22 21 20 20 22 24 27 34 40 42 39 37 35 33 33 36 37 35 32 29 29 30 32 34 34 32 30 29 29 29 29 28 28 27 25 24 24 24 23 21 20 20
17 16 16 17 17 16 17 18 18 18 18 18 18 19 19 18 19 23 27 27 27 26 25 24 23 24 26 26 26 25 25 24 23 23 23 23 23 23 22 21 21 20 19 19 19 19 21 23 25 27 31 36 39 39 39 38 37 36 35 33 31 28 27 28 29 28 29 29 29 28 28 27 27 27 26 25 25 25 25 23 22 20 19 18 18
17 16 16 17 17 17 19 20 20 20 20 22 23 23 24 23 22 18 20 26 28 26 25 24 23 24 24 24 24 23 22 21 20 21 22 22 22 22 22 21 21 20 20 19 19 20 21 22 24 25 26 28 30 33 34 35 35 34 32 31 28 24 21 20 19 19 21 23 25 26 27 26 26 25 24 23 24 25 24 22 20 19 18 18 17
17 17 16 17 18 18 20 22 22 21 22 23 25 26 27 27 27 24 16 10 16 21 22 21 20 19 19 20 20 21 21 22 23 23 23 23 23 23 23 23 22 22 21 20 20 20 21 22 22 23 23 23 24 25 25 24 23 23 24 26 24 20 14 12 13 14 17 21 23 25 26 26 24 23 22 22 22 21 20 19 19 19 18 17 16
17 17 16 17 19 20 21 22 23 22 22 23 26 29 30 30 30 29 27 20 12 4 4 9 15 17 19 20 22 23 23 24 24 24 24 24 24 24 23 24 24 24 23 22 21 21 22 23 23 23 23 23 22 22 21 19 19 19 19 19 18 16 15 14 14 15 17 19 21 23 24 25 24 23 21 20 19 18 18 19 19 18 17 17 16
16 17 17 17 18 20 21 22 23 23 23 23 24 27 31 32 32 31 29 27 24 20 15 10 12 18 23 24 25 25 26 26 25 25 24 24 24 25 26 27 28 28 28 28 27 27 27 27 27 26 26 26 25 24 23 22 21 21 20 18 16 16 16 16 17 17 17 18 19 20 21 22 22 21 20 19 19 18 18 18 18 18 18 17 16
16 17 18 18 19 20 22 24 24 23 24 24 24 25 27 30 31 31 30 29 27 25 23 19 14 12 18 23 26 27 29 29 28 28 27 26 25 25 27 30 33 34 34 34 34 34 33 33 32 31 30 28 27 26 24 23 23 22 21 20 18 17 16 16 16 15 15 16 17 18 18 19 20 20 19 19 19 19 18 18 17 17 16 15 14
18 18 18 19 20 22 24 25 24 24 24 24 24 25 26 27 28 29 30 29 28 27 25 23 20 16 13 18 25 29 30 31 31 31 31 31 30 29 29 32 35 37 38 38 38 38 37 36 35 34 32 30 29 27 25 24 23 22 21 21 20 19 18 19 18 17 16 16 17 17 18 19 20 20 20 19 19 18 18 16 14 13 12 11 10
Wind_Direction
202 204 205 207 208 210 212 214 215 217 218 219 220 222 225 227 227 228 229 231 233 233 233 232 232 232 232 232 233 235 236 234 232 234 237 239 239 238 236 233 233 233 232 233 237 241 241 238 237 237 241 250 257 261 260 255 257 257 253 259 266 266 267 260 257 279 296 304 311 317 322 322 325 334 337 340 346 348 350 354 356 355 350 343 342
202 204 205 206 208 210 212 213 214 216 217 219 220 221 223 225 227 228 229 231 232 233 232 232 232 233 233 234 234 234 235 236 234 235 237 239 240 240 238 235 235 236 236 236 236 240 243 241 239 239 243 249 255 259 260 256 256 256 252 254 262 266 268 268 267 274 289 300 308 311 315 318 320 326 332 335 340 344 346 351 354 353 347 342 344
203 204 205 207 209 210 211 212 213 214 216 218 220 221 221 223 225 228 229 231 231 232 232 232 232 233 234 236 236 236 236 237 236 236 237 238 240 241 239 238 238 239 240 239 237 239 242 244 243 242 245 250 253 255 258 257 257 256 257 260 265 267 269 272 272 269 278 292 300 304 309 314 314 319 325 327 332 337 341 347 351 350 348 347 349
203 204 205 207 209 210 210 211 212 213 215 217 220 221 222 222 224 227 229 231 231 232 232 232 232 233 235 237 239 238 238 237 238 238 238 239 240 241 241 240 241 242 243 243 242 241 242 244 244 243 245 249 251 252 254 256 257 258 261 265 268 269 269 271 275 275 275 281 290 297 303 306 308 312 318 321 325 332 338 344 348 349 350 350 349
203 204 205 207 208 210 211 211 212 213 215 217 219 221 222 222 224 226 228 230 232 233 233 232 232 232 235 238 241 241 240 239 238 239 240 239 240 242 243 242 243 245 245 245 245 245 244 245 245 244 245 248 249 250 251 254 256 258 261 266 269 271 272 271 273 277 275 276 284 293 298 300 302 307 312 316 322 328 335 342 347 348 346 344 349
203 204 205 207 208 210 211 211 212 214 215 217 219 221 221 222 223 225 227 229 231 233 233 233 232 233 235 238 241 243 243 241 240 240 240 240 240 242 243 244 246 248 248 246 246 247 247 247 246 245 245 247 248 248 250 254 257 258 262 266 269 271 271 271 273 275 275 276 281 288 292 296 299 304 309 313 318 324 331 339 344 344 338 339 348
202 204 205 207 209 210 211 212 214 215 216 218 219 221 222 222 223 224 226 228 229 230 232 233 233 234 236 238 240 242 243 242 241 241 240 240 240 242 244 245 247 249 249 248 247 248 248 248 248 248 247 248 248 248 250 254 257 259 262 266 269 270 270 272 273 273 274 276 279 282 288 293 296 299 304 309 314 320 329 335 334 333 333 337 343
202 203 205 207 209 211 213 214 215 217 218 219 220 221 222 223 223 224 224 226 227 229 230 232 234 235 236 238 239 240 240 240 240 240 239 239 239 241 243 245 247 249 249 249 249 248 248 248 248 249 250 252 252 251 252 254 256 259 262 264 266 268 270 271 272 272 272 273 276 279 283 287 290 294 300 307 314 321 330 330 323 322 326 330 334
202 204 206 208 210 212 213 214 216 218 219 220 220 221 222 223 224 224 224 225 227 228 230 232 234 235 236 237 238 239 239 238 239 239 238 238 237 239 242 244 246 248 249 250 251 251 250 249 248 248 250 252 254 255 256 256 258 260 263 265 266 267 270 270 270 270 269 268 272 275 279 283 287 293 298 306 313 317 324 324 316 314 318 320 325
202 204 206 209 210 212 213 214 216 217 218 220 221 222 223 224 224 225 225 226 227 228 230 231 232 234 235 236 237 237 238 238 238 238 238 238 238 238 239 241 244 246 247 249 251 252 253 252 252 251 252 254 256 257 259 260 261 263 265 267 268 269 271 270 270 269 267 267 270 274 277 280 285 291 295 303 310 312 317 320 312 310 311 314 320
203 205 207 210 212 212 213 214 215 216 218 219 220 222 223 224 225 226 226 227 228 229 229 230 231 233 234 235 236 236 238 238 239 239 239 239 238 237 238 240 242 243 245 246 249 252 253 254 255 254 255 256 258 259 261 262 264 266 267 268 269 271 271 271 271 271 268 267 271 274 273 276 284 290 292 300 306 308 313 315 307 303 302 305 310
203 206 208 210 212 212 213 214 215 216 218 219 220 221 222 223 224 225 226 228 228 228 229 230 231 231 232 234 235 236 238 240 239 239 239 239 238 237 237 239 240 242 244 245 247 250 252 254 255 256 256 257 258 260 262 263 264 266 267 269 269 271 272 270 271 271 269 269 272 274 273 274 282 288 289 295 301 302 307 307 302 298 293 287 289
202 205 208 210 211 212 212 213 214 216 218 219 220 221 221 222 222 224 226 227 228 228 229 230 231 231 231 232 234 236 238 240 240 240 240 240 239 238 236 237 239 241 243 245 247 249 250 252 254 256 257 258 258 259 261 263 266 267 268 270 270 270 270 270 270 271 270 269 268 272 275 275 277 283 286 290 295 296 299 300 300 297 288 283 287
203 205 208 210 211 211 212 213 213 216 218 219 220 220 221 221 222 223 225 226 227 228 229 229 230 231 231 231 233 236 238 240 240 240 241 241 240 238 237 236 238 240 243 245 247 248 250 251 253 256 258 259 258 259 260 262 265 267 268 270 271 272 271 270 271 272 271 269 266 270 276 276 275 280 284 284 288 293 295 297 299 296 290 288 289
204 207 209 211 212 211 211 212 213 216 218 218 219 220 221 222 222 223 223 224 226 228 229 230 230 231 231 231 232 235 238 239 240 241 241 241 241 239 237 236 236 239 242 244 246 248 250 251 252 255 258 260 261 260 260 261 263 265 267 269 272 274 274 273 274 275 277 277 273 274 278 279 277 279 280 279 283 290 294 296 295 293 290 287 282
207 213 214 215 214 213 212 212 213 215 217 218 219 220 221 222 222 222 223 224 226 227 228 230 230 231 231 231 232 235 238 239 240 241 242 242 240 239 237 236 235 237 240 243 245 247 249 250 251 253 257 260 262 263 262 261 261 262 264 267 270 273 275 277 277 278 281 283 282 283 286 286 282 279 277 276 279 285 289 290 288 285 281 276 274
213 223 225 224 221 219 217 215 215 215 216 217 218 219 220 222 223 222 221 222 224 225 227 229 230 231 231 231 231 233 237 239 240 240 241 241 239 237 236 235 235 236 238 241 243 246 248 249 250 251 254 258 262 264 263 260 259 259 261 264 267 270 274 277 277 278 279 280 283 286 287 287 284 280 276 273 274 277 278 277 278 276 267 261 266
12 336 260 240 235 231 225 220 218 217 218 218 219 220 220 221 223 222 221 221 222 224 226 228 229 230 231 231 232 233 236 238 239 240 241 240 238 237 235 234 234 236 238 240 242 244 247 249 249 250 253 257 261 263 262 259 256 257 258 260 262 265 271 275 276 276 278 278 280 283 282 281 281 280 277 270 264 264 265 269 274 271 257 251 257
353 342 328 286 256 249 239 230 223 221 221 221 220 221 221 222 223 223 222 222 223 223 224 226 228 229 230 232 232 233 236 238 238 239 240 239 238 236 234 232 233 235 237 239 241 243 245 247 249 249 251 256 260 262 261 258 256 257 258 257 257 262 269 273 275 276 278 279 280 282 282 282 282 278 274 267 256 255 259 267 272 266 254 252 252
342 332 325 318 297 277 262 243 230 225 224 223 222 222 222 222 222 222 222 223 223 224 223 224 227 229 229 231 232 233 235 237 238 238 239 238 237 236 232 229 231 235 237 238 240 242 244 245 247 248 250 253 258 260 260 258 257 258 257 253 254 262 270 273 274 277 279 280 281 283 282 282 281 275 269 263 254 253 258 265 270 265 256 254 250
341 335 327 321 310 296 286 263 240 230 227 225 224 224 223 222 221 221 221 222 222 222 223 223 225 228 229 230 231 232 234 236 237 238 238 238 237 235 231 229 231 234 235 237 239 241 243 244 246 248 250 252 256 258 258 257 257 258 257 255 258 265 271 273 274 276 278 279 279 278 277 277 275 269 265 259 253 256 264 269 271 266 257 254 251
339 335 330 324 314 301 293 284 261 240 231 226 224 224 223 222 222 221 220 221 221 222 222 222 223 226 229 230 231 232 233 234 236 237 237 237 237 235 232 232 233 233 233 235 237 240 242 244 246 250 251 253 256 258 257 257 256 256 257 259 262 265 267 268 271 273 273 273 273 271 269 268 267 264 261 257 255 261 270 271 268 265 261 262 261
331 331 332 325 316 305 294 289 282 257 237 227 223 223 222 220 220 220 219 220 221 222 222 222 222 225 227 229 231 232 233 234 235 236 237 237 238 237 236 236 236 234 231 233 236 239 242 244 247 251 253 254 256 258 258 258 256 256 258 259 260 261 261 263 265 266 267 268 266 263 262 261 262 260 258 257 260 266 270 266 263 262 266 273 271
322 324 327 320 313 307 297 289 281 267 247 232 224 222 221 219 218 218 218 218 220 221 222 221 222 223 226 228 229 231 233 234 235 235 236 237 238 238 238 238 237 235 233 234 237 239 241 244 248 251 252 254 256 258 259 260 258 258 260 258 256 256 256 258 261 262 262 260 257 257 258 258 258 258 259 262 266 268 264 260 259 261 267 273 267
321 322 322 317 311 305 297 287 275 263 252 238 227 222 220 218 216 216 216 216 218 220 221 220 220 222 224 226 228 229 231 233 235 235 236 237 238 239 239 239 238 236 235 235 238 239 241 245 249 251 252 253 255 256 257 258 259 260 260 257 255 255 256 258 259 257 255 253 251 253 255 257 258 261 263 265 264 261 255 250 251 254 255 252 236
322 322 320 317 313 305 297 290 276 260 248 239 231 225 220 217 215 215 215 215 217 219 219 219 220 222 224 226 227 227 229 231 233 234 235 236 237 239 239 240 240 239 237 238 240 240 242 245 247 248 250 252 253 254 256 258 259 260 259 257 256 256 257 258 257 253 251 250 250 251 254 258 262 263 261 258 255 252 248 245 243 241 234 222 205
321 320 320 318 314 307 300 297 292 278 255 239 230 225 221 218 216 215 214 215 217 219 219 219 220 222 224 226 226 226 228 230 231 232 231 232 234 236 237 238 239 238 236 237 238 238 239 241 242 244 247 250 251 253 255 257 258 258 258 258 258 258 259 259 258 256 254 253 252 254 258 260 260 257 253 250 248 246 244 241 235 226 217 208 196
319 317 319 317 310 302 294 295 299 294 273 246 230 223 219 217 217 217 216 215 215 216 217 219 220 222 223 223 222 224 227 228 229 229 228 229 230 232 233 235 235 235 235 236 237 237 237 238 239 241 243 245 247 249 251 252 253 255 256 257 257 257 257 257 257 257 257 256 255 256 257 256 254 251 248 245 243 243 241 235 228 220 210 200 191
318 314 316 312 303 295 289 291 297 298 286 261 239 228 223 220 219 221 222 220 219 218 218 218 221 223 223 221 219 219 222 227 230 230 229 229 230 230 231 233 234 235 237 239 238 236 234 233 233 236 237 239 241 244 246 248 249 250 251 252 252 252 251 252 253 256 258 258 255 254 252 251 249 247 244 241 240 242 239 230 222 216 206 198 194
322 317 314 308 301 296 291 292 296 298 293 273 250 237 232 227 225 225 227 226 225 224 223 224 225 225 224 223 222 222 225 229 232 231 230 231 232 232 234 236 237 238 240 239 235 231 228 227 228 230 230 232 235 237 240 242 243 245 246 247 247 246 246 248 250 254 257 257 256 253 249 246 244 240 238 237 239 240 236 228 220 213 203 197 196
326 323 320 314 308 303 296 292 294 298 298 285 259 243 237 233 230 229 230 230 229 228 227 228 229 228 226 226 227 228 231 233 233 232 232 232 232 233 235 236 237 239 240 236 230 225 222 222 225 225 224 226 230 233 235 237 239 241 243 244 243 241 242 243 245 247 249 250 251 250 246 243 240 237 236 236 236 235 230 222 215 209 203 201 200
325 324 322 318 314 311 304 297 294 296 298 293 270 247 237 233 231 230 230 230 231 231 231 231 231 231 230 230 230 231 232 233 233 234 234 234 233 234 235 236 236 237 236 231 226 222 219 218 221 221 219 222 228 231 232 234 236 238 238 238 238 236 236 238 241 242 244 245 245 244 243 240 236 235 235 234 231 227 221 214 209 206 203 204 205
323 324 324 322 319 318 313 307 301 295 294 293 281 257 240 232 230 232 231 230 231 233 233 233 233 233 233 234 234 235 235 235 235 235 235 236 236 236 236 236 236 234 230 224 219 219 218 218 220 218 216 222 228 228 227 230 233 234 234 235 235 234 234 236 240 242 246 249 247 244 242 239 235 234 233 230 226 221 217 211 207 204 202 204 205
322 323 325 324 322 321 319 316 310 302 296 292 285 270 251 238 233 232 230 229 230 233 235 235 235 234 235 236 237 237 238 239 238 236 236 237 238 238 236 234 231 229 226 221 217 217 216 216 217 217 218 223 225 221 222 228 231 231 233 235 235 233 232 234 238 242 249 254 252 246 243 239 234 231 228 225 221 218 215 211 205 202 202 205 204
324 324 327 329 328 325 322 318 313 307 301 295 289 281 267 252 242 236 231 225 225 230 234 235 235 234 234 235 236 238 239 239 239 239 238 238 238 236 231 226 223 222 221 219 217 218 217 217 216 215 216 218 217 216 224 231 231 230 232 234 234 232 233 235 238 242 248 252 251 247 243 239 235 231 227 222 217 215 213 210 206 203 204 206 203
328 327 329 331 330 326 322 317 312 306 301 296 292 285 275 262 253 247 240 233 228 230 234 238 239 238 236 235 235 237 239 240 239 239 238 239 238 233 225 221 221 221 219 218 218 218 219 219 215 210 209 211 214 220 228 234 234 232 233 235 234 234 236 238 240 244 246 247 247 246 243 238 234 230 224 220 219 219 217 212 207 205 206 205 201
331 329 329 329 329 327 321 316 312 308 302 296 290 281 268 254 244 240 236 229 224 224 227 232 237 240 240 238 236 236 237 239 239 237 236 236 235 231 226 225 226 224 221 221 220 219 219 217 210 201 202 210 217 223 229 234 237 236 235 235 236 237 238 241 243 245 245 243 243 243 240 236 232 228 222 219 221 221 218 211 206 205 206 204 202
331 330 329 328 328 327 323 317 314 312 306 298 285 268 254 245 238 233 229 226 222 219 219 221 223 225 229 232 234 236 239 239 237 236 235 233 232 230 228 228 229 228 227 226 224 221 219 214 202 195 203 214 221 224 227 233 236 236 234 235 237 238 240 242 244 245 243 242 240 239 237 235 233 229 224 221 219 219 216 211 207 205 204 204 206
333 332 332 331 330 329 326 320 317 315 311 300 282 260 247 244 242 235 230 229 228 227 226 225 223 223 224 225 225 228 233 235 232 231 232 231 230 231 231 231 231 232 232 230 228 224 219 209 197 195 203 215 223 224 226 231 233 231 231 235 237 236 235 236 238 239 239 239 238 236 235 235 233 228 223 220 219 217 214 209 207 205 204 206 211
334 333 334 336 335 332 327 322 319 319 316 306 287 264 249 246 246 242 235 229 227 227 227 225 224 226 228 226 221 217 218 223 228 228 226 227 230 232 232 231 232 234 235 233 231 227 219 205 195 194 201 214 225 227 227 227 227 228 232 234 233 232 231 231 233 235 236 236 236 233 233 234 232 225 221 221 221 218 212 208 207 206 206 209 214
334 333 334 337 337 335 331 326 323 322 319 313 299 280 263 252 248 247 244 238 232 231 230 227 227 229 230 230 228 222 219 221 226 224 220 224 230 232 232 233 233 235 236 234 232 228 218 202 192 192 197 209 224 231 227 222 222 229 235 233 229 229 231 231 234 235 235 236 236 234 232 232 229 223 220 221 221 217 211 207 207 207 208 212 216
335 334 335 338 339 339 337 332 328 326 322 317 309 297 281 266 254 247 244 243 241 239 237 236 235 234 232 230 231 230 225 223 224 222 220 224 229 231 233 235 235 234 236 236 233 229 218 201 191 191 193 200 215 226 223 213 211 222 229 229 228 229 229 230 233 235 235 235 236 235 232 229 227 224 220 216 214 211 208 207 209 210 211 212 213
337 336 338 340 341 344 343 339 335 331 327 322 316 308 297 282 266 252 245 244 244 241 240 240 238 236 234 231 230 230 227 223 222 223 223 225 229 231 232 234 233 233 235 235 232 227 215 197 188 188 191 197 206 211 208 202 203 214 222 225 225 223 223 225 230 231 231 232 232 231 229 225 223 220 214 208 205 205 205 206 208 209 209 210 212
342 343 345 347 348 350 350 348 344 337 331 331 332 328 318 299 277 259 248 246 245 241 238 239 238 234 232 230 227 226 223 221 221 223 222 220 221 222 223 223 222 221 222 222 218 211 199 184 176 177 184 190 194 196 196 197 201 208 216 220 219 216 217 223 227 228 227 226 225 223 221 218 214 210 205 202 200 199 198 199 201 200 201 205 209
352 350 351 354 357 358 356 356 355 351 347 350 355 356 350 333 301 269 249 245 248 246 239 235 231 227 225 222 218 215 215 213 212 210 206 202 201 202 201 200 199 200 200 199 195 187 178 171 166 165 171 180 186 192 199 202 203 206 212 217 216 215 218 221 223 224 223 220 217 214 211 206 202 200 198 197 196 195 195 195 194 191 192 196 198
3 0 360 1 3 5 3 1 2 3 5 8 10 10 7 360 344 310 262 242 240 242 239 231 222 215 211 207 203 200 197 193 188 182 179 178 179 179 178 178 177 177 177 176 174 170 165 162 160 158 160 164 172 182 192 198 202 207 214 219 219 219 218 214 213 216 216 213 210 204 197 191 189 190 191 190 189 190 191 191 189 188 189 191 191
13 10 9 8 9 11 11 8 5 8 13 20 24 23 18 13 8 -0 339 279 239 231 227 217 204 195 187 179 175 173 169 166 164 161 160 160 160 159 160 160 159 158 158 156 156 155 153 149 148 149 149 149 153 160 169 178 186 195 204 209 211 209 202 192 193 200 204 205 203 197 189 183 181 182 184 184 184 185 186 188 189 191 191 190 189
21 18 17 16 16 17 18 15 11 10 14 23 32 34 30 25 21 17 13 11 9 344 207 169 155 150 146 144 145 145 145 143 142 141 142 143 143 143 143 142 140 139 138 135 133 133 132 130 129 130 131 132 135 137 140 145 152 159 168 176 178 175 171 171 175 180 184 189 191 189 186 182 180 178 179 181 182 183 183 183 182 182 181 180 180
28 25 24 23 22 23 25 24 18 14 16 23 33 40 40 36 31 26 23 23 26 28 32 57 107 125 128 129 131 130 128 125 122 120 120 122 125 127 129 129 126 123 121 118 115 114 113 115 116 116 116 118 120 121 122 125 130 134 136 137 140 147 156 162 165 167 172 175 176 177 177 175 173 171 171 172 173 175 174 172 170 169 168 167 167
36 33 31 30 28 28 31 32 28 21 20 25 32 39 45 45 41 36 32 29 29 32 32 30 40 81 110 119 121 120 118 116 113 112 110 109 110 112 116 117 117 115 113 110 108 106 105 105 106 107 108 109 111 112 113 113 114 115 115 114 116 123 132 138 144 153 163 169 170 170 169 166 163 161 160 161 161 160 158 157 157 158 156 154 153
41 39 37 36 35 34 35 38 35 27 24 29 35 40 44 47 48 47 45 40 34 33 36 34 31 36 65 96 107 110 111 111 111 111 111 111 110 107 105 106 107 108 108 107 105 103 102 102 101 101 101 101 102 102 102 101 101 103 106 109 111 113 114 115 117 122 132 141 145 147 148 147 145 143 143 144 146 147 146 145 145 145 144 143 144